Regional Weather Roundup
Issued by NWS

Home | Current Version | Previous Version | Text Only | Print | Product List | Glossary On
Versions: 1 2 3 4 5 6 7 8 9 10 11 12 13 14 15 16 17 18 19 20 21 22 23 24 25 26 27 28 29 30 31 32 33 34 35 36 37 38 39 40 41 42 43 44 45 46 47 48 49 50
000
ASUS43 KLMK 210510
RWRKY
KENTUCKY REGIONAL WEATHER ROUNDUP
NATIONAL WEATHER SERVICE LOUISVILLE KY
100 AM EDT THU SEP 21 2017

NOTE "FAIR" INDICATES FEW OR NO CLOUDS BELOW 12,000 FEET
WITH NO SIGNIFICANT WEATHER AND/OR OBSTRUCTIONS TO VISIBILITY.

KYZ001>023-026-027-061>063-070>075-210600-
WESTERN AND SOUTH CENTRAL KENTUCKY

CITY           SKY/WX    TMP DP  RH WIND       PRES   REMARKS
PADUCAH        CLEAR     78  69  73 VRB3      29.98S
HENDERSON      CLEAR     75  71  87 S5        30.00R
OWENSBORO      CLEAR     74  71  91 SE6       30.01R
HOPKINSVILLE   CLEAR     76  71  84 S5        30.01S
BOWLING GREEN  CLEAR     72  71  97 CALM      30.03R
GLASGOW        CLEAR    N/A N/A N/A CALM      30.04S FOG
$$

KYZ024-025-028>034-038-045-046-053-210600-
NORTH CENTRAL KENTUCKY

CITY           SKY/WX    TMP DP  RH WIND       PRES   REMARKS
LOUISVILLE/SDF CLEAR     75  70  84 SE5       30.01R
LOUISVILLE/LOU CLEAR     73  71  93 SE3       30.02R
FORT KNOX      CLEAR     70  70 100 CALM      30.01S
$$

KYZ035>037-039>044-047>052-055>060-089>105-210600-
NORTHEAST KENTUCKY

CITY           SKY/WX    TMP DP  RH WIND       PRES   REMARKS
LEXINGTON      CLEAR     71  66  84 SE5       30.05S
COVINGTON      CLEAR     71  70  96 S5        30.03S
FRANKFORT      CLEAR     69  65  86 CALM      30.03S
$$

KYZ054-064>069-076>088-106>120-210600-
SOUTHEAST KENTUCKY

CITY           SKY/WX    TMP DP  RH WIND       PRES   REMARKS
JACKSON        CLEAR     71  65  81 SE5       30.07F
LONDON         PTCLDY    68  66  93 CALM      30.07F
SOMERSET       CLEAR     66  66 100 CALM      30.07S FOG
MIDDLESBORO    CLEAR     64  64 100 CALM      30.09F
MONTICELLO     PTCLDY    65  65 100 W6        30.08S FOG
$$




USA.gov is the U.S. government's official web portal to all federal, state and local government web resources and services.